Date String (YYYY-MM-DD hh:mm:ss) UTC,Instrument flags,Ambient pressure (hPa),Sample flow (lpm),Bypass flow (lpm),Sample temperature (°C),Ambient temperature (°C),ASC tube jacket temperature (°C),LED temperature (°C),Box temperature (°C),Sample RH (%),Span deviation,Mass concentration (μg/m³),Mass concentration (μg/m³),Mass concentration (μg/m³)
DateTimeUTC,F1_M11,P_M11,Q1_M11,Q2_M11,T1_M11,T2_M11,T3_M11,T4_M11,T5_M11,U1_M11,ZSPAN_M11,X0_M11,X2_M11,X1_M11
2022-02-07 05:00:00,,0833.1,4.99,0.00,22.4,23.0,00.0,31.3,24.4,07.8,0000.0,0005.51,0003.16,0002.76
2022-02-07 05:01:00,,0833.1,5.00,0.00,22.4,22.8,00.0,31.3,24.4,07.6,0000.0,0005.17,0003.07,0002.67
2022-02-07 05:02:00,,0833.1,5.00,0.00,22.4,22.6,00.0,31.3,24.3,07.6,0000.0,0004.98,0002.97,0002.60
2022-02-07 05:03:00,,0833.1,4.99,0.00,22.4,22.4,00.0,31.3,24.2,07.1,0000.0,0004.82,0002.86,0002.51
2022-02-07 05:04:00,,0833.1,4.99,0.00,22.4,22.2,00.0,31.3,24.2,06.9,0000.0,0004.75,0002.83,0002.46
2022-02-07 05:05:00,,0833.1,4.99,0.00,22.4,22.1,00.0,31.3,24.1,06.9,0000.0,0004.60,0002.75,0002.42
2022-02-07 05:06:00,,0833.2,5.01,0.00,22.4,22.0,00.0,31.3,24.1,07.1,0000.0,0004.60,0002.70,0002.38
2022-02-07 05:07:00,,0833.1,5.00,0.00,22.3,21.9,00.0,31.3,24.0,07.6,0000.0,0004.71,0002.70,0002.38
2022-02-07 05:08:00,,0833.2,4.99,0.00,22.3,21.8,00.0,31.3,24.0,07.6,0000.0,0004.19,0002.62,0002.31
2022-02-07 05:09:00,,0833.2,5.01,0.00,22.3,21.7,00.0,31.3,24.0,07.6,0000.0,0003.96,0002.52,0002.24
2022-02-07 05:10:00,,0833.2,4.99,0.00,22.3,21.6,00.0,31.3,23.9,07.7,0000.0,0003.99,0002.54,0002.24
2022-02-07 05:11:00,,0833.2,5.01,0.00,22.2,21.5,00.0,31.3,23.9,07.7,0000.0,0004.14,0002.59,0002.24
2022-02-07 05:12:00,,0833.2,5.01,0.00,22.2,21.5,00.0,31.3,23.9,07.7,0000.0,0004.27,0002.60,0002.22
2022-02-07 05:13:00,,0833.2,4.99,0.00,22.2,21.4,00.0,31.3,23.8,07.9,0000.0,0004.44,0002.64,0002.24
2022-02-07 05:14:00,,0833.2,5.01,0.00,22.2,21.4,00.0,31.3,23.8,08.1,0000.0,0004.58,0002.77,0002.36
2022-02-07 05:15:00,,0833.3,5.00,0.00,22.1,21.4,00.0,31.3,23.8,07.9,0000.0,0005.90,0002.91,0002.49
2022-02-07 05:16:00,,0833.3,4.99,0.00,22.1,21.4,00.0,31.2,23.7,07.7,0000.0,0006.16,0003.00,0002.55
2022-02-07 05:17:00,,0833.3,5.02,0.00,22.1,21.4,00.0,31.2,23.7,08.1,0000.0,0006.17,0003.13,0002.68
2022-02-07 05:18:00,,0833.4,5.00,0.00,22.1,21.7,00.0,31.2,23.8,07.8,0000.0,0005.95,0003.15,0002.72
2022-02-07 05:19:00,,0833.4,4.98,0.00,22.2,22.4,00.0,31.3,24.1,07.7,0000.0,0005.86,0003.17,0002.74
2022-02-07 05:20:00,,0833.5,5.00,0.00,22.4,23.0,00.0,31.3,24.3,07.7,0000.0,0005.92,0003.20,0002.79
2022-02-07 05:21:00,,0833.4,5.00,0.00,22.4,22.8,00.0,31.3,24.3,07.6,0000.0,0005.93,0003.21,0002.81
2022-02-07 05:22:00,,0833.4,5.00,0.00,22.5,22.6,00.0,31.3,24.3,07.6,0000.0,0005.82,0003.18,0002.79
2022-02-07 05:23:00,,0833.4,5.00,0.00,22.4,22.4,00.0,31.3,24.2,07.6,0000.0,0006.70,0003.18,0002.80
2022-02-07 05:24:00,,0833.4,5.00,0.00,22.4,22.2,00.0,31.3,24.2,07.5,0000.0,0007.70,0003.18,0002.78
2022-02-07 05:25:00,,0833.5,5.00,0.00,22.4,22.1,00.0,31.3,24.1,07.5,0000.0,0007.65,0003.14,0002.71
2022-02-07 05:26:00,,0833.4,5.00,0.00,22.4,22.0,00.0,31.3,24.1,07.3,0000.0,0006.92,0003.04,0002.62
2022-02-07 05:27:00,,0833.4,5.01,0.00,22.3,21.9,00.0,31.3,24.0,07.2,0000.0,0006.43,0002.97,0002.57
2022-02-07 05:28:00,,0833.4,4.98,0.00,22.3,21.8,00.0,31.3,24.0,07.2,0000.0,0006.31,0002.84,0002.46
2022-02-07 05:29:00,,0833.4,5.01,0.00,22.3,21.7,00.0,31.3,24.0,07.3,0000.0,0006.23,0002.79,0002.38
2022-02-07 05:30:00,,0833.4,4.98,0.00,22.3,21.6,00.0,31.3,23.9,07.3,0000.0,0006.15,0002.73,0002.34
2022-02-07 05:31:00,,0833.4,5.01,0.00,22.2,21.6,00.0,31.3,23.9,07.2,0000.0,0006.01,0002.62,0002.27
2022-02-07 05:32:00,,0833.4,5.00,0.00,22.2,21.5,00.0,31.3,23.8,07.1,0000.0,0005.91,0002.52,0002.18
2022-02-07 05:33:00,,0833.3,5.00,0.00,22.2,21.5,00.0,31.3,23.8,07.0,0000.0,0005.79,0002.44,0002.11
2022-02-07 05:34:00,,0833.3,5.01,0.00,22.2,21.4,00.0,31.3,23.8,06.9,0000.0,0004.98,0002.33,0002.02
2022-02-07 05:35:00,,0833.3,4.99,0.00,22.1,21.4,00.0,31.3,23.8,06.8,0000.0,0003.21,0002.21,0001.92
2022-02-07 05:36:00,,0833.3,5.01,0.00,22.1,21.4,00.0,31.2,23.8,06.7,0000.0,0003.15,0002.13,0001.83
2022-02-07 05:37:00,,0833.3,5.01,0.00,22.1,21.4,00.0,31.2,23.8,06.6,0000.0,0003.07,0002.03,0001.74
2022-02-07 05:38:00,,0833.3,4.99,0.00,22.2,22.0,00.0,31.2,23.9,06.4,0000.0,0003.13,0001.99,0001.66
2022-02-07 05:39:00,,0833.3,4.99,0.00,22.3,22.7,00.0,31.3,24.1,06.2,0000.0,0002.85,0001.87,0001.57
2022-02-07 05:40:00,,0833.3,5.00,0.00,22.4,23.1,00.0,31.3,24.3,06.1,0000.0,0002.61,0001.71,0001.45
2022-02-07 05:41:00,,0833.3,5.00,0.00,22.5,22.9,00.0,31.3,24.3,06.0,0000.0,0002.43,0001.58,0001.33
2022-02-07 05:42:00,,0833.3,5.00,0.00,22.5,22.7,00.0,31.3,24.3,06.1,0000.0,0002.29,0001.47,0001.23
2022-02-07 05:43:00,,0833.2,5.00,0.00,22.5,22.5,00.0,31.3,24.3,06.2,0000.0,0002.20,0001.40,0001.16
2022-02-07 05:44:00,,0833.2,5.00,0.00,22.4,22.3,00.0,31.3,24.2,06.3,0000.0,0002.08,0001.32,0001.10
2022-02-07 05:45:00,,0833.2,4.99,0.00,22.4,22.2,00.0,31.3,24.2,06.5,0000.0,0002.10,0001.28,0001.05
2022-02-07 05:46:00,,0833.2,5.01,0.00,22.4,22.0,00.0,31.3,24.1,06.5,0000.0,0001.96,0001.23,0001.01
2022-02-07 05:47:00,,0833.2,4.98,0.00,22.4,21.9,00.0,31.3,24.0,06.4,0000.0,0001.81,0001.16,0000.97
2022-02-07 05:48:00,,0833.2,5.00,0.00,22.3,21.8,00.0,31.3,24.0,06.4,0000.0,0001.74,0001.14,0000.96
2022-02-07 05:49:00,,0833.3,5.00,0.00,22.3,21.7,00.0,31.3,24.0,06.5,0000.0,0001.59,0001.11,0000.96
2022-02-07 05:50:00,,0833.3,5.02,0.00,22.3,21.6,00.0,31.3,23.9,06.5,0000.0,0001.58,0001.11,0000.96
2022-02-07 05:51:00,,0833.3,4.99,0.00,22.2,21.6,00.0,31.3,23.9,06.5,0000.0,0001.61,0001.13,0000.97
2022-02-07 05:52:00,,0833.3,4.99,0.00,22.2,21.5,00.0,31.3,23.9,06.4,0000.0,0001.64,0001.15,0000.98
2022-02-07 05:53:00,,0833.2,5.01,0.00,22.2,21.5,00.0,31.3,23.8,06.4,0000.0,0001.62,0001.14,0000.98
2022-02-07 05:54:00,,0833.3,5.00,0.00,22.2,21.5,00.0,31.3,23.8,06.3,0000.0,0001.54,0001.10,0000.97
2022-02-07 05:55:00,,0833.3,4.99,0.00,22.1,21.4,00.0,31.3,23.8,06.3,0000.0,0001.53,0001.10,0000.97
2022-02-07 05:56:00,,0833.3,5.01,0.00,22.1,21.4,00.0,31.2,23.8,06.3,0000.0,0001.46,0001.08,0000.94
2022-02-07 05:57:00,,0833.3,4.99,0.00,22.1,21.5,00.0,31.2,23.8,06.3,0000.0,0001.39,0001.04,0000.91
2022-02-07 05:58:00,,0833.3,4.99,0.00,22.2,22.1,00.0,31.3,24.0,06.3,0000.0,0001.37,0001.02,0000.88
2022-02-07 05:59:00,,0833.3,5.01,0.00,22.3,22.8,00.0,31.3,24.3,06.2,0000.0,0001.31,0000.99,0000.87
